Weather History for Marathon, FL

Change the Weather History Date:

Monday, March 18, 2013

  Actual Average Record
Temperature  
Mean Temperature 78 °F 74 °F  
Max Temperature 83 °F 80 °F 86 °F (2001)
Min Temperature 73 °F 69 °F 59 °F (2007)
Degree Days  
Heating Degree Days 0 0  
Month to date heating degree days 19 0  
Since 1 July heating degree days 32 75  
Cooling Degree Days 13 9  
Month to date cooling degree days 82 152  
Year to date cooling degree days 677 534  
Growing Degree Days 27 (Base 50)    
Moisture  
Dew Point 67 °F    
Average Humidity 75    
Maximum Humidity 87    
Minimum Humidity 62    
Precipitation  
Precipitation 0.00 in 0.07 in 0.13 in (2014)
Month to date precipitation 0.15 1.36  
Year to date precipitation 2.53 5.18  
Snow  
Snow 0.00 in - - ()
Month to date snowfall 0.0  
Since 1 July snowfall 0.0  
Snow Depth 0.00 in    
Sea Level Pressure  
Sea Level Pressure 30.01 in    
Wind  
Wind Speed 7 mph (SE)    
Max Wind Speed 13 mph    
Max Gust Speed 22 mph    
Visibility 10 miles    
Events      
T = Trace of Precipitation, MM = Missing Value Source: NWS Daily Summary

Daily Weather History Graph

Daily Weather History Graph

Search for Another Location

Airport:

Trip Planner

Search our weather history database for the weather conditions in past years. The results will help you decide how hot, cold, wet, or windy it might be!

Date:

Astronomy

Mar. 18, 2013 Rise Set
Actual Time 7:29 AM EDT 7:34 PM EDT
Civil Twilight 7:07 AM EDT 7:57 PM EDT
Nautical Twilight 6:40 AM EDT 8:23 PM EDT
Astronomical Twilight 6:14 AM EDT 8:50 PM EDT
Moon 12:03 PM EDT (3/18) 12:58 AM EDT (3/18)
Length of Visible Light 12h 50m
Length of Day
12h 04m
Waxing Crescent, 40% of the Moon is Illuminated
Mar 18
Waxing Crescent
Mar 19
First Quarter
Mar 27
Full
Apr 3
Last Quarter
Apr 10
New

Hourly Weather History & Observations

Time (EDT) Temp. Heat Index Dew Point Humidity Pressure Visibility Wind Dir Wind Speed Gust Speed Precip Events Conditions
12:53 AM 73.0 °F - 64.0 °F 73% 30.06 in 10.0 mi SE 6.9 mph - N/A   Clear
1:53 AM 73.0 °F - 64.0 °F 73% 30.04 in 10.0 mi SE 8.1 mph - N/A   Partly Cloudy
2:53 AM 73.0 °F - 64.0 °F 73% 30.01 in 10.0 mi SE 10.4 mph 18.4 mph N/A   Partly Cloudy
3:53 AM 73.0 °F - 64.0 °F 73% 30.01 in 10.0 mi SE 8.1 mph - N/A   Partly Cloudy
4:14 AM 73.4 °F - 64.4 °F 73% 30.00 in 10.0 mi SE 8.1 mph - N/A   Mostly Cloudy
4:21 AM 73.4 °F - 64.4 °F 73% 30.00 in 10.0 mi SE 9.2 mph - N/A   Scattered Clouds
4:53 AM 73.0 °F - 64.9 °F 76% 30.01 in 10.0 mi SE 9.2 mph - N/A   Partly Cloudy
5:35 AM 73.4 °F - 64.4 °F 73% 30.01 in 10.0 mi SE 8.1 mph - N/A   Mostly Cloudy
5:50 AM 73.4 °F - 64.4 °F 73% 30.01 in 10.0 mi ESE 6.9 mph - N/A   Scattered Clouds
5:53 AM 73.9 °F - 64.9 °F 73% 30.01 in 10.0 mi SE 9.2 mph - N/A   Scattered Clouds
6:53 AM 73.0 °F - 66.0 °F 79% 30.03 in 10.0 mi SE 9.2 mph - N/A   Clear
7:53 AM 73.0 °F - 66.0 °F 79% 30.03 in 10.0 mi SE 10.4 mph 16.1 mph N/A   Clear
8:53 AM 75.0 °F - 66.9 °F 76% 30.05 in 10.0 mi SE 8.1 mph - N/A   Clear
9:17 AM 75.2 °F - 66.2 °F 73% 30.06 in 10.0 mi SE 5.8 mph - N/A   Mostly Cloudy
9:53 AM 77.0 °F - 66.9 °F 71% 30.06 in 10.0 mi SE 6.9 mph - N/A   Mostly Cloudy
10:01 AM 77.0 °F - 66.2 °F 69% 30.06 in 10.0 mi SSE 8.1 mph - N/A   Scattered Clouds
10:53 AM 80.1 °F 82.3 °F 66.9 °F 64% 30.06 in 10.0 mi SSE 9.2 mph - N/A   Clear
11:53 AM 80.1 °F 82.1 °F 66.0 °F 62% 30.04 in 10.0 mi SSE 11.5 mph 19.6 mph N/A   Scattered Clouds
12:53 PM 81.0 °F 83.3 °F 66.9 °F 62% 30.03 in 10.0 mi SSE 10.4 mph 18.4 mph N/A   Clear
1:53 PM 80.1 °F 82.3 °F 66.9 °F 64% 30.00 in 10.0 mi SSE 10.4 mph 17.3 mph N/A   Clear
2:53 PM 80.1 °F 82.3 °F 66.9 °F 64% 29.97 in 10.0 mi SSE 10.4 mph 17.3 mph N/A   Partly Cloudy
3:53 PM 80.1 °F 82.3 °F 66.9 °F 64% 29.98 in 10.0 mi South 8.1 mph - N/A   Partly Cloudy
4:53 PM 79.0 °F - 68.0 °F 69% 29.97 in 10.0 mi SSE 4.6 mph - N/A   Scattered Clouds
5:53 PM 78.1 °F - 68.0 °F 71% 29.98 in 10.0 mi Calm Calm - N/A   Mostly Cloudy
6:53 PM 77.0 °F - 68.0 °F 74% 29.98 in 10.0 mi Calm Calm - N/A   Overcast
7:21 PM 75.2 °F - 68.0 °F 78% 29.98 in 9.0 mi Calm Calm - N/A   Overcast
7:46 PM 73.4 °F - 68.0 °F 83% 29.98 in 9.0 mi Calm Calm - N/A   Scattered Clouds
7:53 PM 75.0 °F - 68.0 °F 79% 29.98 in 10.0 mi Calm Calm - N/A   Scattered Clouds
8:01 PM 73.4 °F - 68.0 °F 83% 29.97 in 10.0 mi NE 3.5 mph - N/A   Mostly Cloudy
8:14 PM 73.4 °F - 68.0 °F 83% 29.97 in 10.0 mi North 4.6 mph - N/A   Mostly Cloudy
8:53 PM 73.9 °F - 68.0 °F 82% 29.99 in 10.0 mi NNE 3.5 mph - N/A   Overcast
9:53 PM 73.9 °F - 69.1 °F 85% 29.99 in 10.0 mi ENE 4.6 mph - N/A   Scattered Clouds
10:53 PM 73.9 °F - 69.1 °F 85% 29.99 in 9.0 mi Calm Calm - N/A   Mostly Cloudy
11:06 PM 73.4 °F - 69.8 °F 88% 29.99 in 9.0 mi Calm Calm - N/A   Scattered Clouds
11:16 PM 73.4 °F - 69.8 °F 88% 30.00 in 9.0 mi Calm Calm - N/A   Mostly Cloudy
11:53 PM 73.9 °F - 69.1 °F 85% 29.99 in 9.0 mi Calm Calm - N/A   Scattered Clouds